THOR ABLESTAR DEB, 3748

Orbit data source: Space-Track

THOR ABLESTAR DEB, 3748 is space debris in LEO originally from a launch on Thu, 29 Jun 1961 UTC launched from the Air Force Eastern Test Range (AFETR). Debris objects in space refer to the collection of defunct objects orbiting the Earth. Examples of debris include non-operational satellites, rocket bodies, and fragments generated from explosions, collisions, or faulty payload assembly.

Loading next visibility...
Identifier
3748, 1961-015JD
Orbit
LEO
Country
Flag of USUS
Related business
Manufacturer
Unknown
Mission
Spacecraft
Bus & Motor
Unknown
Mass
Unknown
Launch date (UTC)
1961-06-29 (65 years ago)
Launch vehicle
Unknown
Launch site
Air Force Eastern Test Range (AFETR)
Object type
Payload
Rocket body
Debris
Shape & HBR
Unknown shape, 0.1 m
Radar Cross Section
Medium (>0.1 m² and <1 m²)

Expand to show TLE details & history
Last TLE update: 10 hours ago

TLE from 10 hours ago
0 THOR ABLESTAR DEB
1 03748U 61015JD  26174.90621964  .00000095  00000-0  35611-3 0  9995
2 03748  67.7424 135.6512 0533421 279.6698 103.7701 12.80141033694687
Epoch: 2026-06-23T21:44Z
TLE epoch observation values (Epoch: 2026-06-23T21:44:57.376Z)
Latitude
26.95401°
Longitude
-90.70651°
Altitude
1,461.662 km
Speed
7.079 km/s
True Right ascension
09h 50m 24s
True Declination
26° 49' 40"
Sunlit
Object was in daylight at epoch
Visualization orbit readout
Latitude
Unknown
Longitude
Unknown
Altitude
Unknown
Speed
Unknown
Apparent Right ascension
Unknown
Apparent Declination
Unknown
Sunlit
N/A
Visualization observer readout
Local Sidereal Time
18:59:01
Azimuth
Unknown
Elevation
Unknown
Doppler factor
Unknown
Orbital elements
Apogee altitude
1,750.939 km
Perigee altitude
927.613 km
Semi-major axis
7,717.413 km
Eccentricity
0.05334
Inclination
67.7424°
RAAN
135.6512°
Arg. of periapsis
279.6698°
True anomaly
109.60409°
Mean anomaly
103.7701°
Eccentric anomaly
106.69751°
Mean motion
3.20137 °/min
Orbital period
112.45 mins
BSTAR
0.00035611

Documentation

Showing up to 5 results
|